Simultaneous Nadir Overpasses (SNOs) Predictions

Prediction of SNOs between NOAA-19 and TERRA Satellite Orbit:

Table of predicted SNOs for the next 14.0 days since TLE Epoch: 9/21/2024
Index Date (NOAA-19) Time (NOAA-19) Lat,Lon (NOAA-19) SZA (NOAA-19 ) Date (TERRA) Time (TERRA) Lat,Lon (TERRA) SZA (TERRA ) Distance(km) Time Diff (sec)
1 09/23/2024 01:42:13 -72.54, -33.91 107.24 09/23/2024 01:42:41 -72.53, -33.91 107.24 0.23 28
2 09/23/2024 02:32:43 73.64, 135.88 73.82 09/23/2024 02:31:39 73.64, 135.92 73.82 1.34 64
3 09/25/2024 04:41:17 -71.56, -80.48 107.31 09/25/2024 04:42:19 -71.58, -80.43 107.32 2.20 62
4 09/25/2024 05:31:38 73.13, 90.05 74.16 09/25/2024 05:31:09 73.12, 89.99 74.15 2.43 29
5 09/27/2024 08:30:43 72.10, 43.22 74.02 09/27/2024 08:30:47 72.12, 43.29 74.03 2.79 4
6 09/29/2024 11:29:39 71.51, -2.57 74.28 09/29/2024 11:30:17 71.50, -2.61 74.27 1.24 38
7 09/29/2024 12:20:19 -72.77, 167.21 104.53 09/29/2024 12:19:16 -72.79, 167.28 104.52 2.84 63
8 10/01/2024 14:28:40 70.63, -48.76 74.30 10/01/2024 14:29:51 70.62, -48.82 74.27 2.45 71
9 10/01/2024 15:19:13 -72.26, 121.50 104.19 10/01/2024 15:18:44 -72.25, 121.45 104.20 2.23 29



Historial Predications of SNOs between NOAA-19 and TERRA
